{"data":{"norad_id":49314,"intl_designator":"2021-090AM","name":"ONEWEB-0388","alt_names":[],"object_type":"PAYLOAD","status":"ACTIVE","operator":null,"country":"UK","launch_date":"2021-10-14","launch_site_code":"VOSTO","launch_vehicle":null,"mission":null,"orbit_class":"UNKNOWN","rcs_meters":null,"size_class":null,"mass_kg":null,"dimensions":null,"purposes":["comms"],"wikipedia_slug":null,"has_3d_model":false,"image_url":null,"decayed_at":null,"tle_current":{"epoch":"2026-05-24T23:31:51.478752Z","epoch_age_seconds":69974,"freshness":"FRESH","line1":"1 49314U 21090AM  26144.98045693 -.00000021  00000+0 -85871-4 0  9991","line2":"2 49314  87.9152 309.5963 0001950  92.7827 267.3529 13.19725265223350","mean_motion":13.19725265,"eccentricity":0.000195,"inclination_deg":87.9152,"raan_deg":309.5963,"arg_perigee_deg":92.7827,"mean_anomaly_deg":267.3529,"bstar":-8.5871e-5,"rev_number":22335,"period_min":109.11361918952,"perigee_km":1184.2945776706,"apogee_km":1187.244501221,"semimajor_km":7563.9065394458,"source":"CELESTRAK","updated_at":"2026-05-25T13:38:22.527389Z"}}}